Other Surface Observations
Issued by NWS Charleston, SC

Home | Current Version | Previous Version | Text Only | Print | Product List | Glossary On
Versions: 1 2 3 4 5 6 7 8 9 10 11 12 13 14 15 16 17 18 19 20 21 22 23 24 25 26 27 28 29 30 31 32 33 34 35 36 37 38 39 40 41 42 43 44 45 46 47 48 49 50
000
SXUS52 KCHS 282228
OSOCHS

MARINE OBSERVATIONS
NATIONAL WEATHER SERVICE CHARLESTON SC
600 PM EDT WED SEP 28 2016

...DOWNTOWN CHARLESTON AND HARBOR...

CITY           SKY/WX    TMP DP  RH WIND       PRES   REMARKS
WATERFRONT PRK   N/A     83  76  79 S12       29.90F HX  91

...LAKE MOULTRIE...

CITY           SKY/WX    TMP DP  RH WIND       PRES   REMARKS
PINOPOLIS        N/A     88  72  58 VRB3      29.83F HX  94

...LAKE AND SUPPLEMENTAL COASTAL OBSERVATIONS...

STATION/POSITION TIME  TEMP    WIND        PRES    WAVE   SWELL
                       AIR SEA DIR/SP/G            HT/PER HT/PER/DIR
                 (UTC) (F)     (DEG/KT/KT) (MB)    (FT/S) (FT/S/D)
FORT PULASKI     2200   83 82  150/  8/ 13 1013.6
SAPELO ISLAND    2200   84     170/ 11     1013.0
WINYAH BAY       2145   83     190/ 11     1012.0F
LAKE MURRAY      2220   84     150/ 10/ 15 1010.5S
ACE BASIN NERRS  2145   83     160/  2     1013.0S


...C-MAN AND BUOY OBSERVATIONS...

STATION/POSITION TIME  TEMP    WIND        PRES    WAVE   SWELL
                       AIR SEA DIR/SP/G            HT/PER HT/PER/DIR
                 (UTC) (F)     (DEG/KT/KT) (MB)    (FT/S) (FT/S/D)
BUOY 41004       2150   82 83  180/ 10/ 10 1013.2F   2/11   2/110/11
BUOY 41008       2150   82 83  150/ 12/ 14 1013.2R   2/11   2/ 80/11
FOLLY BEACH CMAN 2200   81     180/ 13/ 15 1013.5F
CAPERS NS BUOY   2108   82 82  200/ 12/ 16 1013.2F
FRIPP NS BUOY    2208   83 82  180/ 14/ 17 1013.1S
5E ST. MARYS GA  2201      83                N/A     2/13   2/ 90/13


STATION/POSITION TIME  TEMP    WIND        PRES    WAVE   SWELL
                       AIR SEA DIR/SP/G            HT/PER HT/PER/DIR
                 (UTC) (F)     (DEG/KT/KT) (MB)    (FT/S) (FT/S/D)
FRYING PAN BUOY  2210   81 83  170/  8/ 10 1013.9
BUOY 41025       2150   80 84  120/  4/  6 1015.1R   4/11   3/100/11
CAPE LOOKOUT NC  2200   79     130/  9/ 10 1014.5R
BUOY 41002       2150   82 83  210/ 14/ 17 1015.0R   5/ 6   2/ 50/11
BUOY 41010       NOT AVBL
ST AUGUSTINE FL  2200   77 84   CALM  /  1 1015.9R

$$




USA.gov is the U.S. government's official web portal to all federal, state and local government web resources and services.